Погода в Партизанском

Россия / Оренбургская область     53°00′00″N   52°08′05″E
темп.,
°C
ветер,
м/с
пор.,
м/с
влажн.,
%
обл.,
%
осадки,
мм/ч
давл.,
гПа
погр.,
м
20 сентября, пн
пн2023:00+4с116464 0.0 102510
02:00+3ссв116756 0.0 102610
05:00+3св117191 0.0 102610
08:00+3всв117415 0.0 102628
11:00+10в234592 0.0 1026729
14:00+13в2334100 0.0 10261281
17:00+14в343397 0.0 10241286
20:00+9всв264786 0.0 102496
21 сентября, вт
вт2123:00+8в41148100 0.0 1025331
02:00+8в41050100 0.0 1025371
05:00+6в3954100 0.0 1024276
08:00+7в3752100 0.0 1024232
11:00+9в3747100 0.0 1023396
14:00+10в41048100 0.0 1022479
17:00+10вюв51145100 0.0 1021524
20:00+11вюв51241100 0.0 1020501
22 сентября, ср
ср2223:00+11вюв51241100 0.0 1019411
02:00+11вюв51252100 0.0 1018457
05:00+11юв41060100 0.3 1017415
08:00+11юв41066100 0.3 1017512
11:00+10юв51278100 1.6 1018401
14:00+13юв41149100 0.0 1018507
17:00+13ююв4958100 0.2 1019622
20:00+10вюв3968100 0.9 1019299
23 сентября, чт
чт2323:00+9в2671100 2.4 1020166
02:00+10вюв4967100 0.2 1021327
05:00+10вюв41163100 0.2 1021338
08:00+11вюв4125399 0.0 1021433
11:00+15юв51036100 0.0 1022542
14:00+16юв4931100 0.0 1022780
17:00+16юв4930100 0.0 10221217
20:00+12вюв2644100 0.1 1024187
24 сентября, пт
пт2423:00+11вюв41163100 0.1 1024608
02:00+11вюв41265100 0.0 1024590
05:00+12вюв5136277 0.0 1023632
08:00+12вюв5146495 0.0 1023644
11:00+16юв7123566 0.0 1022992
14:00+20юв81223100 0.0 10201493
17:00+19юв71326100 0.0 10191437
20:00+18вюв61328100 0.0 10181039